sat.trackr.live / text

‹ back to catalog

STARLINK-6040

NORAD 56809 · 2023-078AU

PAYLOAD ACTIVE UNKNOWN

§ Identity

Operator
Country
US
Launch date
2023-05-31
Launch site
AFWTR
Launch vehicle
Mass (kg)
RCS (m²)

Purposes: comms

External: N2YO · Heavens-Above · Gunter

§ Orbital elements

Epoch: 2026-09-20T07:01:31.007136Z

Period
96.11 min
Inclination
69.9994°
Eccentricity
0.0003370
Mean motion
14.98329813 rev/d
Perigee alt
569.7 km
Apogee alt
574.4 km
Semi-major
6,950.2 km
B*
1.8384e-7
RAAN
213.6387°
Arg perigee
267.4812°
Mean anomaly
92.5961°
Rev number
18,183

§ Raw data

STARLINK-60401 56809U 23078AU  26263.29271999 -.00000091  00000+0  18384-6 0  99952 56809  69.9994 213.6387 0003370 267.4812  92.5961 14.98329813181830

JSON: /api/v1/satellites/56809 · /tle

For live sub-satellite position, see the globe view (requires WebGL).

§ Visibility from observer

Set your observer location to see the next 7 days of passes ≥ 10°. The values pass through the URL so the page stays shareable.

No JS? Fill the form by hand. The geolocation button needs JavaScript.